GFSGL_700_spd_009.txt.gz
Wind_Speed
5 7 8 10 10 16 19 13 10 12 10 11 14 14 15 14 15 17 17 19 18 13 14 16 19 21 20 20 17 25 21 18 22 26 27 27 24 21 15 13 9 7 8
3 4 5 9 8 12 18 15 10 8 10 13 14 15 16 15 16 19 17 18 16 13 9 17 18 21 19 20 16 22 17 18 23 22 27 24 20 15 11 10 7 6 5
3 4 5 7 7 8 11 13 9 10 12 17 17 18 18 18 17 16 13 13 13 10 11 14 13 22 18 23 22 21 23 27 24 21 19 20 14 10 9 6 5 4 4
4 4 5 7 7 7 10 14 18 13 14 15 16 17 15 15 14 15 14 15 12 5 9 15 15 22 21 26 27 26 27 22 18 16 12 10 10 9 8 8 8 7 5
4 3 5 6 7 9 9 13 17 13 13 11 14 12 12 11 13 12 13 10 7 14 18 24 21 21 26 26 22 27 19 16 14 12 12 12 10 10 10 8 8 7 5
6 4 5 7 9 11 12 11 17 13 15 16 15 10 18 17 15 13 7 10 17 19 25 26 26 26 26 25 23 21 16 14 16 13 12 14 13 11 11 10 6 4 3
6 6 6 8 10 12 12 11 13 15 15 15 16 14 12 12 14 17 18 27 23 23 19 22 22 20 18 18 17 17 16 17 14 18 17 15 13 11 8 3 3 7 11
5 6 7 9 9 12 13 12 12 13 12 12 13 13 12 12 12 13 15 18 18 19 19 19 19 18 18 16 16 16 15 18 18 17 16 13 9 5 3 5 9 12 16
3 5 7 8 10 11 12 10 10 11 10 10 11 11 11 11 11 12 13 15 17 18 19 19 19 19 19 18 17 18 17 16 16 15 11 6 4 6 10 12 15 18 20
5 5 7 8 9 11 12 11 9 8 10 7 9 11 11 12 11 10 11 14 17 17 20 20 19 18 18 18 18 18 18 18 14 10 6 3 3 6 12 16 20 24 26
5 6 7 7 9 9 10 9 10 9 9 10 7 8 10 12 11 12 13 14 16 16 17 17 17 17 17 17 18 17 14 11 7 4 1 5 8 12 17 21 25 28 30
6 5 8 7 7 8 10 10 8 8 8 8 10 11 12 11 12 14 14 14 14 16 15 15 15 15 17 18 16 13 10 6 3 5 8 10 15 20 25 27 26 31 33
10 6 9 9 8 8 8 9 9 9 8 7 9 11 12 14 14 15 16 15 15 13 13 13 13 14 14 13 12 11 9 7 8 9 11 17 21 24 26 28 30 31 37
11 9 6 12 10 9 9 8 8 8 8 8 9 9 11 11 12 14 14 14 14 12 11 13 15 14 13 12 11 9 8 9 12 13 16 20 21 23 26 27 34 36 36
8 12 9 10 12 11 10 10 9 9 10 10 9 10 10 10 10 12 12 11 12 13 13 13 13 13 11 11 13 14 15 15 16 18 21 23 27 32 34 35 38 28 21
11 11 13 11 10 12 14 15 14 13 13 12 12 12 12 14 15 14 15 15 14 13 15 15 15 15 15 16 18 21 21 20 22 24 24 28 32 33 35 30 20 17 12
17 10 11 15 16 13 15 16 17 17 17 15 15 16 16 16 17 17 18 18 18 19 19 19 19 19 18 21 24 24 23 22 21 24 27 29 32 34 36 22 8 13 17
21 18 12 11 13 18 17 17 17 19 19 18 17 17 16 16 18 19 21 22 23 22 21 21 20 23 26 27 26 27 23 22 24 26 26 30 38 28 12 5 11 11 11
21 24 21 16 14 14 14 18 22 21 21 21 22 21 19 19 18 21 23 24 24 23 23 23 25 29 30 29 28 27 24 26 28 29 31 35 31 16 4 9 6 8 12
20 23 25 24 22 19 18 17 17 23 24 24 24 23 24 24 25 24 23 21 22 24 25 28 32 33 32 31 30 30 30 31 31 32 33 29 25 3 8 6 6 9 14
19 21 22 22 23 25 25 24 22 18 23 24 25 27 28 29 29 27 25 22 20 24 27 32 33 34 34 34 31 29 30 33 34 33 35 23 2 7 6 5 5 10 14
19 21 22 21 20 22 24 27 29 26 23 24 24 21 20 25 28 29 28 25 25 30 31 33 36 37 37 37 35 33 33 35 36 34 23 7 7 8 5 3 7 10 14
20 20 22 23 20 19 21 20 20 23 28 27 27 31 30 26 27 30 29 28 28 31 33 37 37 42 42 41 39 38 38 36 34 31 16 10 13 8 4 4 9 13 16
23 23 21 21 23 25 26 26 26 24 27 28 31 34 36 32 30 31 35 34 35 34 31 32 40 32 40 45 42 41 41 36 33 13 15 15 13 8 4 6 10 14 18
29 26 27 26 27 25 22 24 23 23 24 29 32 33 36 37 39 40 39 40 42 42 39 35 36 37 35 40 42 42 36 39 17 16 17 17 11 8 7 9 11 15 18
32 31 30 28 25 24 26 26 26 25 25 25 36 36 38 44 45 45 47 48 47 47 49 45 42 40 36 41 37 36 38 20 19 20 18 13 10 10 9 10 12 16 20

GFSGL_700_spd_015.txt.gz
Wind_Speed
2 2 2 2 8 9 7 9 7 9 9 12 14 14 13 12 9 10 14 14 19 17 18 20 18 14 14 12 11 14 12 16 26 19 28 27 17 26 26 27 23 21 15
3 2 2 2 5 7 5 8 8 11 10 13 13 14 12 12 12 11 13 18 16 14 16 17 16 17 14 16 16 12 13 18 16 22 20 23 25 32 23 24 23 19 11
3 2 2 3 6 8 9 11 11 11 11 14 14 14 13 13 13 17 17 13 12 15 13 13 13 14 15 13 13 13 14 20 16 22 23 25 20 24 20 22 17 9 9
5 3 4 6 9 11 11 15 16 15 15 14 14 14 15 15 15 14 15 13 12 13 13 14 15 15 14 12 17 16 5 10 22 21 21 23 24 27 20 13 13 12 10
6 5 7 7 9 8 11 16 17 16 16 14 13 13 12 12 11 12 13 12 11 11 13 14 16 14 18 17 13 11 12 17 26 22 27 24 21 18 17 16 14 13 12
8 7 9 9 10 11 13 12 10 11 11 11 13 9 6 9 10 11 10 11 11 14 16 13 17 18 21 17 12 20 16 21 27 26 20 19 18 18 18 17 16 13 9
9 9 10 11 11 12 12 13 13 14 15 20 11 11 6 5 13 11 10 13 13 14 19 17 24 21 11 16 23 23 29 22 23 20 19 21 21 21 21 17 12 8 4
8 10 11 12 13 13 14 14 13 13 15 14 12 12 18 19 15 13 17 19 17 18 18 20 22 22 20 25 27 24 21 22 26 27 26 25 23 19 15 10 6 2 3
8 9 11 14 13 14 13 13 12 11 13 16 16 16 21 26 22 26 25 26 21 19 23 28 28 29 25 24 23 22 21 23 26 26 25 23 18 13 9 5 2 4 8
8 9 10 12 15 13 14 14 12 11 11 13 15 17 16 15 18 19 19 18 19 24 27 28 27 24 23 21 21 22 24 25 25 23 19 15 13 9 5 1 4 7 10
8 8 10 10 12 13 12 12 12 11 11 11 13 14 15 15 16 18 19 19 17 20 22 22 22 23 23 24 25 25 25 22 20 17 15 12 8 4 1 5 8 11 16
9 9 9 10 11 13 12 11 11 12 12 13 12 13 14 15 16 16 17 17 18 18 18 19 20 20 22 24 24 24 24 21 18 15 10 6 3 3 6 9 13 18 24
10 12 11 11 10 11 12 12 11 9 11 12 14 14 15 15 16 18 18 17 17 18 18 18 19 21 22 22 22 22 20 16 12 8 5 3 5 8 11 14 17 21 28
14 12 14 13 13 11 11 12 13 12 9 9 11 14 15 17 17 16 16 17 17 16 17 18 19 20 20 22 21 18 16 13 10 7 7 8 10 13 16 17 20 22 26
16 15 14 17 16 14 13 11 11 13 13 11 11 12 12 13 15 16 16 16 16 17 17 17 17 18 19 18 17 15 13 11 10 10 11 12 14 17 18 21 25 27 34
12 15 15 16 19 19 17 15 14 14 14 15 15 16 17 18 18 17 17 17 17 15 15 14 15 17 17 16 14 13 13 13 14 14 14 15 16 18 20 24 27 28 28
13 10 10 15 18 20 19 18 17 15 14 14 14 14 13 14 16 18 20 20 21 20 19 18 18 18 18 18 18 17 16 16 16 15 15 17 18 20 23 26 29 27 31
17 15 13 11 16 17 19 18 18 16 15 14 13 14 15 16 17 20 22 22 22 20 19 19 19 20 21 21 20 19 17 17 17 17 19 20 22 24 27 28 33 26 32
22 19 17 15 15 19 18 19 19 18 16 15 16 16 15 16 18 20 21 21 21 20 20 21 21 21 22 22 22 22 21 20 20 22 23 24 25 26 28 28 34 23 11
25 23 22 20 18 18 22 22 20 18 18 18 18 17 18 19 19 19 19 18 18 18 21 22 23 23 24 24 24 25 25 25 26 27 27 27 28 29 29 33 28 15 12
27 25 24 25 22 21 20 19 18 18 17 17 19 20 20 21 21 22 21 21 20 18 19 21 23 26 27 29 29 28 29 30 30 31 33 32 32 32 35 29 37 14 14
24 23 21 22 25 27 27 25 23 21 20 19 17 17 20 24 26 26 26 26 25 24 24 24 24 26 29 31 32 33 32 34 36 35 37 37 38 37 40 40 27 11 16
18 16 15 14 15 21 27 30 30 28 27 25 23 22 23 23 23 23 22 20 20 29 25 27 27 32 31 33 34 35 38 38 41 38 37 40 41 43 47 37 12 13 15
23 22 17 16 15 15 20 24 26 26 25 25 23 21 19 23 26 25 24 24 23 22 22 23 25 23 30 30 39 40 43 48 53 42 43 43 46 50 41 23 14 16 16
26 24 25 23 22 19 16 21 23 25 25 23 22 20 19 22 22 25 26 26 28 29 26 27 30 32 31 34 38 39 44 47 47 40 42 45 55 46 35 18 17 18 16
26 26 28 29 29 25 22 18 18 20 24 23 22 22 22 22 21 21 21 24 27 28 29 33 33 35 38 41 44 46 47 49 53 56 42 48 54 37 21 19 18 18 16

GFSGL_700_spd_021.txt.gz
Wind_Speed
7 6 5 4 6 7 4 1 4 7 10 12 12 10 9 9 9 9 9 6 9 14 9 10 12 15 10 8 9 16 16 11 15 16 18 24 29 29 27 33 32 25 21
6 3 2 3 6 4 1 4 5 8 11 13 11 10 8 7 9 10 8 9 13 12 13 13 15 14 13 4 6 18 18 14 14 16 21 29 30 24 32 34 32 20 18
5 2 2 4 5 4 4 5 6 9 10 12 11 9 8 8 9 11 13 12 12 14 17 13 13 9 9 10 11 20 15 13 14 22 33 22 25 32 35 28 31 17 16
4 4 5 5 6 7 7 7 7 10 10 9 9 9 8 9 10 11 13 13 11 12 14 11 11 10 10 9 14 15 11 21 21 27 28 31 37 29 25 28 22 20 14
5 6 6 6 7 9 9 9 9 9 10 11 10 9 9 10 11 12 11 10 12 11 12 13 12 12 13 11 12 12 18 18 21 27 27 34 34 25 21 21 19 18 13
7 8 7 7 8 9 10 7 8 9 10 11 11 11 10 10 11 12 13 12 11 11 11 11 14 14 14 15 14 12 13 14 18 28 26 33 29 27 23 21 18 14 15
9 10 9 9 9 8 6 9 9 10 10 8 6 7 9 10 11 12 11 9 11 11 12 10 16 17 16 13 14 18 19 26 22 24 26 29 29 24 21 20 19 16 13
11 11 11 11 10 8 9 9 10 9 10 2 5 11 11 11 10 11 11 10 13 13 11 11 14 14 17 17 21 23 21 28 25 28 28 27 25 22 22 20 17 13 9
12 12 11 11 11 10 9 8 10 11 11 15 14 11 10 13 12 11 8 11 13 17 15 16 16 12 13 16 22 22 23 27 26 27 28 26 26 24 22 18 14 10 6
12 14 12 12 11 9 8 8 9 12 16 15 17 17 19 16 14 12 12 13 15 18 21 20 15 16 19 24 26 25 26 26 26 27 28 28 25 22 18 14 11 8 4
12 14 14 12 11 11 9 8 9 10 10 9 14 18 21 15 9 10 18 19 17 17 20 21 20 23 24 24 23 22 22 24 27 27 26 23 21 18 14 10 7 4 3
10 12 14 14 12 11 10 9 9 9 9 10 10 12 11 13 13 16 21 21 22 24 16 22 23 20 21 20 22 24 25 25 25 24 22 19 16 13 9 6 4 5 7
12 11 11 13 15 13 12 10 10 10 10 10 10 10 11 12 15 16 18 21 23 23 22 21 20 19 17 18 22 25 27 26 23 21 19 15 13 10 6 4 6 9 11
13 13 12 11 12 14 15 15 13 11 10 11 11 11 12 12 12 13 14 15 16 19 20 19 18 17 17 19 21 22 24 23 21 20 17 14 11 9 8 9 11 13 15
14 15 15 14 13 13 13 15 15 15 14 13 13 13 12 12 13 14 13 13 14 15 16 17 16 16 17 18 21 23 23 22 20 18 15 13 11 10 11 13 15 16 17
18 16 15 16 15 15 15 15 17 18 18 17 18 18 17 17 15 14 13 13 13 14 13 13 13 14 15 16 18 20 21 20 18 15 14 13 13 13 15 16 17 19 21
19 18 16 16 18 17 16 16 15 16 18 18 18 18 17 17 17 16 15 14 14 14 14 15 15 16 16 16 18 19 20 19 18 17 16 16 16 16 17 19 21 22 24
18 19 19 16 14 19 18 17 17 16 15 15 15 16 16 16 16 15 16 16 15 14 14 15 16 18 20 21 22 22 22 22 21 20 19 19 19 20 21 22 23 25 26
19 18 18 17 17 15 20 20 18 18 18 18 20 20 19 18 17 17 17 16 15 16 16 16 16 17 18 20 22 23 24 24 24 23 23 23 24 24 25 26 27 28 28
23 20 17 14 14 16 18 21 21 20 19 19 20 20 21 20 19 17 17 16 16 16 17 18 20 20 20 20 22 24 26 27 27 27 26 27 27 27 28 31 33 34 33
28 26 23 22 21 18 16 18 19 21 22 21 20 20 19 19 19 19 19 19 18 17 18 18 19 20 21 23 24 25 26 27 28 27 28 28 31 33 33 35 36 34 41
32 32 30 27 25 24 23 21 19 22 22 22 23 23 22 23 22 22 21 21 20 20 21 22 23 24 25 26 27 28 29 30 31 30 31 32 35 39 38 37 40 42 47
30 29 32 34 31 28 27 27 27 24 23 25 26 27 26 24 21 20 22 23 23 23 24 25 26 27 27 29 30 30 31 31 31 32 34 35 38 40 40 41 39 47 51
35 29 29 31 34 33 32 30 30 30 29 27 27 27 26 25 23 21 21 21 22 24 25 28 30 31 32 33 31 31 32 32 33 33 33 32 33 36 38 41 48 48 50
41 36 32 33 33 31 32 31 29 29 31 33 34 33 32 31 30 29 28 27 27 26 24 26 27 27 29 31 32 32 32 31 32 35 36 37 38 38 41 47 48 46 44
44 43 40 37 35 34 34 31 28 26 27 28 31 34 38 38 36 33 30 29 28 27 27 29 30 30 30 30 31 32 33 34 37 39 40 42 43 45 46 47 46 39 32

GFSGL_700_spd_024.txt.gz
Wind_Speed
7 7 8 7 8 7 4 3 2 4 6 9 10 8 7 7 7 7 5 5 7 8 5 8 10 12 14 13 14 14 16 12 10 15 18 17 25 25 29 28 28 30 31
7 6 6 7 6 2 1 1 5 6 7 8 8 7 5 5 5 7 6 6 9 9 5 7 10 10 10 8 10 12 13 8 8 19 28 34 35 27 29 33 27 25 26
6 4 3 3 2 2 4 2 5 7 8 8 8 6 5 5 7 7 6 9 10 10 8 9 10 7 5 6 9 16 16 18 16 15 36 30 31 25 32 30 24 25 24
5 4 3 2 2 4 5 6 5 8 8 8 7 6 6 7 8 8 8 9 8 10 9 9 8 5 8 10 20 21 19 19 14 21 26 32 23 29 32 30 22 23 17
6 6 5 5 5 7 6 6 7 9 9 9 7 6 7 10 11 11 8 7 9 8 9 8 8 9 9 13 15 16 16 20 20 28 37 30 31 39 32 29 23 20 12
7 7 5 8 7 7 6 4 6 7 7 8 8 9 9 10 10 10 9 9 8 7 7 5 7 9 9 12 13 14 16 17 30 27 28 36 33 31 27 27 21 14 13
8 7 7 11 10 6 5 2 7 8 8 8 8 9 10 11 10 11 11 10 9 8 8 7 8 9 12 10 12 20 12 20 19 25 27 35 28 22 23 24 17 14 14
9 8 9 10 10 6 6 8 5 6 6 5 5 11 10 11 12 11 8 8 9 9 9 13 11 11 11 11 13 19 22 20 28 22 31 26 22 21 20 18 18 17 14
11 9 11 12 10 9 8 5 7 7 5 3 10 14 14 13 11 11 11 11 11 11 12 13 12 12 12 18 17 20 17 23 28 26 27 27 26 22 22 21 19 14 9
13 10 10 12 11 10 10 8 7 10 9 13 11 7 11 11 10 12 12 14 16 13 15 16 12 10 9 21 16 21 24 24 26 29 30 28 27 26 22 19 13 10 7
15 12 11 11 11 11 10 9 10 8 9 13 15 16 15 11 8 12 13 15 18 19 16 15 12 13 20 21 20 24 21 24 26 27 29 28 26 22 17 13 10 10 6
14 15 13 11 10 10 11 10 10 9 9 8 10 9 9 13 15 15 20 19 20 18 17 16 15 21 22 22 23 22 22 22 26 29 27 25 22 18 14 10 7 5 6
12 14 15 13 11 10 10 10 10 10 10 10 10 10 10 13 15 15 19 21 21 15 17 20 21 22 20 21 24 25 26 26 26 24 23 21 18 14 11 8 6 7 9
12 12 13 14 14 13 12 11 11 10 10 11 11 11 12 12 13 15 18 21 22 22 21 20 20 18 18 22 24 26 28 27 24 23 21 17 15 12 11 10 9 10 12
14 13 13 14 15 15 13 12 11 12 12 11 12 12 12 12 14 14 13 14 16 16 15 15 15 15 17 21 24 26 26 24 23 21 19 16 15 14 12 12 12 14 15
15 13 14 14 15 16 17 16 14 14 13 14 14 15 15 15 14 14 15 15 15 14 14 14 14 14 16 19 21 23 24 23 21 19 18 17 17 16 16 15 16 17 18
16 15 13 15 16 16 17 18 17 16 15 14 14 14 13 13 13 14 14 15 16 16 16 15 14 15 17 18 19 21 22 23 22 21 21 20 19 19 18 19 19 21 23
12 15 17 14 15 17 17 17 18 17 15 14 14 14 13 14 14 15 15 14 14 14 14 15 15 16 17 18 19 21 24 25 24 24 24 23 22 22 21 23 24 26 28
16 17 19 19 17 16 19 19 19 18 18 18 18 18 17 16 16 16 16 15 15 15 15 15 15 17 18 19 20 21 24 25 25 26 26 26 25 25 25 27 28 29 32
19 17 18 19 21 20 19 22 21 20 20 21 20 19 20 19 19 17 16 16 16 16 17 18 19 19 19 20 22 25 26 28 27 29 29 29 29 30 31 31 33 33 35
23 23 21 20 18 16 17 18 21 22 22 22 21 23 22 20 20 19 19 18 19 19 20 21 22 22 23 24 24 25 27 28 29 30 32 32 33 33 33 36 37 38 40
26 26 26 24 22 20 18 17 16 18 21 23 23 24 23 23 25 23 22 22 21 21 23 24 25 26 26 27 28 29 30 31 31 31 32 34 35 35 36 38 40 42 41
32 29 28 29 28 26 25 24 22 20 19 21 23 26 27 26 26 25 23 22 23 23 23 25 26 27 28 29 30 30 32 33 33 33 34 36 38 37 38 41 40 40 45
40 35 31 31 31 31 32 30 28 26 26 26 25 26 29 28 29 27 26 25 25 25 26 28 28 29 30 31 32 32 33 33 33 33 33 35 38 39 39 41 39 41 45
47 43 39 35 34 35 34 34 34 33 31 31 32 31 30 30 28 29 28 28 27 26 26 26 28 28 29 31 33 33 33 32 32 34 34 33 35 37 38 42 45 48 46
48 49 43 41 41 38 36 35 37 37 36 36 34 35 35 36 36 34 34 34 33 31 31 32 30 26 27 29 28 28 28 27 29 32 34 36 38 40 43 46 47 47 48

GFSGL_700_spd_030.txt.gz
Wind_Speed
7 8 9 4 4 4 4 3 2 2 2 4 4 3 3 1 2 2 2 4 4 3 5 11 9 10 10 4 18 19 16 17 14 15 18 18 15 16 19 24 15 15 30
6 6 5 2 4 3 3 1 1 3 5 7 5 3 2 3 1 2 1 2 4 5 4 9 6 14 11 13 17 16 15 14 13 11 17 18 10 11 17 29 33 34 34
5 2 1 2 1 3 2 1 4 5 5 7 5 3 0 1 1 1 2 5 7 7 6 7 8 9 10 12 15 15 12 11 12 12 13 16 15 23 46 44 41 26 28
3 2 1 1 1 0 2 2 3 4 5 4 4 2 1 2 4 4 6 5 5 9 10 9 4 10 8 8 12 11 8 8 15 15 17 27 40 35 37 39 26 20 28
3 1 2 2 2 1 3 3 5 7 7 4 4 1 3 4 7 8 6 8 8 8 10 7 6 7 5 8 9 9 10 13 19 19 30 36 30 36 36 28 28 27 26
5 1 2 4 3 3 3 5 6 7 7 7 6 3 6 6 7 7 7 8 9 8 6 5 10 10 12 16 16 14 11 15 19 34 35 32 33 28 25 28 23 26 25
4 2 4 6 3 4 5 6 5 5 5 5 6 5 7 8 7 6 7 7 7 6 5 6 7 8 11 10 15 14 13 22 26 30 20 28 35 27 33 29 26 27 22
5 2 5 10 4 5 9 5 6 6 6 7 6 6 9 11 10 9 8 8 7 6 7 8 9 8 9 9 12 15 14 29 24 24 17 34 28 31 26 29 29 20 21
5 2 6 8 6 6 8 8 7 4 4 7 8 8 9 11 10 8 9 6 6 9 9 9 7 7 9 15 15 20 21 29 25 25 28 29 29 31 28 26 21 20 20
6 4 7 6 5 9 9 11 11 8 3 5 10 12 10 10 10 7 8 7 9 10 9 10 12 13 14 16 13 19 26 28 24 33 34 27 28 26 22 22 19 16 14
7 8 6 8 5 10 8 8 11 12 15 11 7 12 11 12 10 11 9 7 7 8 9 6 11 11 16 14 18 19 27 24 30 28 30 34 32 25 24 22 18 15 11
7 8 4 5 6 8 8 7 7 7 9 14 13 9 11 12 12 13 12 11 9 9 6 10 17 19 21 19 24 25 24 28 33 30 27 28 25 26 22 15 13 10 7
9 8 5 4 6 6 7 8 7 6 6 10 10 11 8 12 12 15 16 16 14 13 13 22 22 22 22 23 27 26 29 32 29 28 25 23 23 20 17 14 11 5 2
8 7 6 4 6 6 5 7 8 6 7 7 8 9 10 16 16 14 18 20 18 16 19 21 21 22 24 24 29 28 25 23 21 23 24 24 21 18 15 10 8 6 6
8 7 7 6 5 5 6 5 7 8 10 5 10 11 13 17 19 18 17 18 18 16 18 17 17 17 16 18 20 23 22 24 23 23 21 17 17 14 12 9 8 7 8
9 8 7 7 6 7 6 5 4 6 8 7 9 12 14 17 17 17 18 19 20 18 18 14 14 14 13 14 16 19 21 22 20 19 17 17 16 13 10 9 10 10 12
9 7 8 6 6 6 6 6 6 6 8 8 7 10 12 12 14 15 16 15 17 17 16 13 12 13 15 15 16 16 16 16 16 15 14 15 15 15 13 11 13 14 17
7 10 9 8 7 7 7 7 9 8 7 8 9 10 10 11 11 13 13 12 13 13 13 12 11 10 10 13 14 14 14 15 16 15 15 16 17 17 18 17 17 19 21
8 6 9 11 10 9 9 9 8 10 11 11 10 11 12 13 13 13 12 12 11 11 11 11 12 11 10 11 12 13 15 15 17 19 19 19 19 21 22 21 23 23 25
13 10 8 7 12 12 11 11 12 11 12 13 12 12 12 12 11 11 11 12 12 13 13 13 12 12 13 14 14 15 16 18 19 20 22 22 22 23 26 26 26 28 30
18 17 14 12 10 12 14 13 12 15 14 12 12 14 13 14 13 13 14 15 15 15 15 15 16 16 15 16 16 17 18 19 19 20 19 20 22 25 25 26 28 29 31
25 22 19 17 15 12 11 14 15 14 16 16 14 12 15 17 18 17 17 17 17 17 18 19 19 19 19 19 20 20 21 21 22 22 23 24 23 23 26 27 28 30 32
28 29 26 22 20 17 14 13 13 13 14 15 16 16 12 15 17 17 18 18 19 20 20 20 20 20 21 22 22 22 23 23 23 24 26 25 25 26 27 28 30 30 32
32 31 31 29 25 24 21 18 16 15 14 13 13 14 11 9 13 16 19 20 21 21 21 21 22 21 21 21 23 22 21 21 23 24 25 26 26 26 26 27 29 30 30
33 35 34 35 32 29 29 26 23 23 22 21 20 20 18 16 16 16 16 19 21 23 23 23 24 24 25 24 24 25 24 23 24 25 24 26 29 29 28 27 28 29 31
39 35 31 36 37 37 32 34 31 28 28 26 26 26 26 24 23 24 23 23 24 24 24 24 23 23 24 25 25 25 25 24 25 25 23 23 27 28 29 29 29 29 30

GFSGL_700_spd_033.txt.gz
Wind_Speed
9 9 6 5 6 7 5 3 5 2 2 4 5 3 2 2 2 3 3 4 3 2 5 11 10 10 11 15 14 20 18 18 15 19 22 20 20 16 17 16 15 30 26
8 5 4 3 5 4 2 3 2 3 4 5 6 4 0 1 1 3 2 2 3 3 2 12 11 9 7 21 19 18 19 19 18 18 19 20 22 21 16 16 24 15 30
4 4 3 4 3 1 2 3 4 5 5 6 4 5 3 1 1 3 5 4 5 4 6 5 10 12 15 19 20 18 17 20 19 15 19 22 20 16 19 28 18 23 37
3 1 2 2 1 2 5 3 6 7 8 6 5 4 4 2 3 5 5 6 10 11 9 8 9 12 15 17 19 19 19 19 16 18 21 23 22 22 31 34 37 34 30
5 2 4 4 1 3 5 4 5 7 9 7 6 4 5 5 5 6 6 9 8 8 7 7 8 9 11 9 13 10 14 17 22 24 26 28 27 40 46 42 30 25 30
4 3 2 5 3 3 5 5 6 5 7 7 6 6 7 7 6 7 8 8 10 7 8 9 10 10 8 11 14 9 13 21 27 21 21 30 43 43 40 29 32 34 31
5 4 3 6 3 2 6 6 6 5 7 7 5 6 9 9 7 7 7 7 8 8 9 9 12 11 12 12 12 16 21 24 22 18 32 33 39 28 30 34 30 26 26
4 1 4 7 7 6 6 6 6 6 7 8 8 7 9 9 9 9 8 6 7 9 11 12 12 10 10 12 14 20 24 27 23 32 31 33 25 30 29 25 23 31 28
5 3 9 7 7 6 9 7 6 7 8 10 10 10 12 10 10 9 8 6 8 11 10 9 9 10 15 16 17 23 34 34 25 33 32 26 33 28 28 35 31 24 25
6 9 8 6 8 9 11 9 6 3 5 8 10 10 12 12 9 10 9 8 10 10 10 11 11 14 20 15 20 29 30 29 27 38 36 32 29 29 33 24 23 24 21
6 7 7 7 10 10 9 10 12 12 7 8 14 15 12 13 11 10 9 8 8 8 6 10 12 17 18 21 21 30 24 32 30 36 32 34 34 33 25 26 26 23 18
7 6 8 8 7 7 7 6 9 10 11 9 10 14 14 13 12 12 10 8 9 8 6 9 14 18 22 23 25 36 24 29 31 34 27 34 30 29 28 25 21 17 15
8 9 9 9 7 7 6 5 5 8 8 11 10 10 15 12 12 14 11 8 6 9 15 14 17 19 22 24 32 29 31 26 22 27 31 27 25 24 20 19 17 11 9
9 9 7 8 6 6 5 5 3 6 7 10 10 8 13 14 13 14 14 12 10 16 17 17 16 20 27 25 25 24 33 26 24 26 24 23 22 19 16 14 11 7 4
8 9 9 9 7 7 6 3 4 6 9 12 12 13 13 12 13 17 19 16 17 19 20 22 21 22 26 29 31 33 30 26 24 23 23 21 19 16 13 10 8 5 4
8 8 7 10 8 7 7 6 6 11 13 14 14 14 14 18 18 22 22 20 18 18 19 19 18 18 19 19 23 25 25 26 24 22 20 19 17 14 12 10 8 6 5
7 9 7 6 9 8 7 7 8 8 13 13 12 14 15 13 17 19 21 20 18 17 16 16 15 15 16 16 16 17 18 19 19 19 19 18 16 15 13 11 10 9 8
9 8 7 7 7 8 8 8 7 9 8 11 12 10 10 12 13 16 16 16 16 17 16 15 14 13 14 15 15 15 15 16 15 16 17 17 16 15 13 11 12 13 14
8 7 9 8 8 8 9 9 10 10 10 10 10 11 10 9 9 9 10 11 10 10 10 10 12 13 13 14 15 16 16 16 15 14 13 12 14 16 15 15 15 17 18
13 9 7 7 9 9 8 10 12 12 12 12 12 12 12 12 10 7 7 7 8 9 9 8 8 8 12 15 13 13 13 12 13 13 13 13 14 16 17 17 17 19 20
19 16 12 9 7 8 9 8 6 10 12 12 13 14 13 13 13 13 13 13 12 11 10 9 10 10 10 10 10 12 14 15 15 16 16 17 16 16 16 18 20 21 23
17 21 18 14 11 8 6 9 10 10 7 10 13 15 17 19 18 17 17 16 15 15 15 14 14 13 12 11 12 14 14 14 14 14 15 15 17 18 19 20 21 22 24
19 16 21 20 18 16 11 9 9 10 10 9 8 15 17 15 16 18 18 18 18 18 17 17 17 17 16 16 16 16 16 15 16 18 19 19 19 20 21 21 22 24 25
27 23 19 21 21 22 19 15 12 11 10 10 9 6 9 12 13 14 15 17 18 19 19 19 18 17 18 18 19 20 20 19 19 19 19 21 21 21 22 23 23 24 25
34 33 28 25 23 22 26 25 21 18 17 16 16 13 11 10 10 10 10 11 14 17 19 20 21 21 21 21 21 21 21 21 21 20 21 22 23 24 25 25 24 25 27
36 36 33 30 26 25 25 28 29 28 25 24 23 22 19 17 16 16 16 16 17 16 17 17 18 19 22 23 24 24 23 23 23 23 24 24 23 24 26 27 26 27 28

GFSGL_700_spd_036.txt.gz
Wind_Speed
11 10 11 12 12 13 10 9 6 6 5 7 7 6 3 3 2 2 3 3 4 5 6 9 9 11 14 12 10 14 11 20 18 20 23 23 20 19 17 15 18 24 21
10 11 10 10 10 8 8 6 5 6 7 7 6 4 3 3 2 3 3 4 7 5 9 10 14 13 12 12 11 12 23 17 19 21 23 21 19 16 15 17 21 32 29
10 10 8 8 6 6 5 6 6 8 7 6 5 5 4 3 3 2 1 3 3 2 2 5 14 12 11 11 17 18 21 21 22 24 24 22 20 16 26 17 22 20 19
9 8 7 6 5 4 5 6 8 9 9 7 7 6 4 4 3 4 3 2 4 5 4 5 12 13 13 14 18 19 21 23 22 21 23 25 24 24 18 26 24 26 31
7 7 7 6 3 2 4 7 8 9 9 9 7 6 5 5 4 4 5 2 2 3 5 7 11 14 20 22 20 24 24 26 25 22 22 28 28 23 21 29 25 35 28
8 8 7 4 2 2 5 6 6 7 9 8 6 6 6 7 5 5 5 4 2 4 7 6 9 12 15 18 19 26 23 23 23 19 22 28 23 23 36 23 36 36 30
7 8 7 5 1 4 5 6 7 7 9 9 7 7 7 6 6 6 6 5 3 5 9 11 11 13 15 11 12 14 16 20 20 21 21 25 24 29 35 36 22 28 23
8 9 9 7 2 2 6 7 7 8 9 10 9 7 7 6 7 6 6 5 5 7 10 11 10 9 9 15 22 23 22 21 22 24 28 19 37 39 26 24 31 28 31
10 9 11 7 4 4 5 7 7 8 8 9 9 9 8 8 8 7 7 5 7 7 8 8 11 11 12 17 18 26 28 34 35 34 31 35 33 26 31 29 34 30 25
14 13 11 8 6 7 6 5 5 7 9 10 10 12 11 10 9 7 7 9 8 6 6 8 13 16 16 17 23 30 34 33 33 32 33 29 28 32 25 28 28 22 21
16 12 10 8 8 8 8 9 9 5 9 14 14 13 14 11 9 7 7 8 7 7 6 9 18 19 16 25 29 28 28 36 35 33 32 33 32 30 35 29 26 22 17
16 13 11 9 9 6 4 5 6 6 3 8 14 15 14 13 11 8 6 4 6 4 8 10 19 18 24 25 26 26 25 35 35 34 34 27 35 34 31 29 27 25 23
17 14 11 9 8 7 5 3 2 3 5 7 11 14 12 11 10 9 6 4 4 6 12 14 16 22 23 29 25 26 27 30 31 29 30 33 30 27 27 26 23 19 16
16 14 12 9 8 7 6 4 4 4 5 7 8 11 14 12 9 10 5 3 8 12 13 14 19 21 23 24 23 27 29 30 23 26 31 27 26 26 24 22 19 14 12
15 14 13 10 9 7 6 5 4 6 7 10 9 9 12 12 13 12 9 10 12 14 13 14 21 22 25 28 24 24 26 25 29 30 26 25 25 24 22 19 16 13 10
13 13 11 10 9 7 7 7 7 11 12 13 13 12 10 17 19 17 15 17 18 19 18 19 21 21 21 21 27 28 29 30 30 28 24 24 23 20 17 14 11 10 8
11 12 11 9 9 8 7 10 11 11 14 13 15 15 14 15 20 20 19 19 20 20 19 19 20 20 20 23 25 26 25 24 23 23 23 23 21 19 16 13 11 10 7
11 11 11 9 8 9 10 11 12 12 11 11 12 13 15 16 15 16 16 15 15 17 17 16 17 19 20 19 19 19 21 21 20 20 20 20 18 17 15 13 12 10 10
12 10 10 11 10 10 11 13 15 14 13 12 12 13 14 14 15 14 14 12 10 10 11 14 16 17 18 20 21 20 19 17 17 16 16 16 15 16 14 13 13 15 17
10 11 10 11 11 11 11 10 11 12 15 15 12 10 10 10 11 12 13 13 14 14 14 13 12 13 15 17 17 17 17 19 19 20 20 20 19 18 17 17 17 19 20
14 12 10 9 10 11 11 10 11 11 11 13 14 15 14 12 10 9 9 9 9 10 11 11 11 11 11 10 11 13 14 15 15 14 15 16 18 19 18 18 19 20 21
14 17 16 11 8 7 7 11 11 11 12 13 14 15 16 16 17 16 15 14 12 11 11 11 11 12 13 14 14 14 14 15 15 15 15 15 16 17 19 19 20 21 23
20 16 19 19 15 11 9 8 9 11 12 13 16 17 17 17 17 17 17 16 17 16 16 16 14 13 13 13 14 16 17 17 16 18 20 22 22 22 22 22 23 25 26
24 22 21 19 17 17 15 16 14 10 9 11 14 14 16 15 15 15 16 18 19 19 20 19 18 17 16 16 17 18 18 18 19 20 22 23 23 23 24 24 25 26 26
29 29 27 26 23 19 17 17 17 19 17 14 13 13 14 13 13 13 14 16 17 17 17 18 18 19 20 21 21 20 20 21 22 23 24 25 26 26 26 27 27 28 29
32 32 32 31 29 28 26 22 20 22 22 22 19 17 16 17 17 16 17 17 16 16 17 17 17 18 19 20 22 23 24 25 25 27 28 29 30 30 31 30 30 31 32

GFSGL_700_spd_042.txt.gz
Wind_Speed
14 13 13 15 15 13 13 10 10 10 10 9 7 6 7 8 9 8 6 5 4 5 6 10 8 8 12 9 12 14 14 15 17 16 14 14 15 15 18 19 19 21 23
13 12 14 15 12 12 9 9 10 8 8 6 6 7 7 8 9 7 6 4 6 6 10 7 11 11 14 14 10 12 12 16 17 16 18 17 17 17 19 19 18 20 18
11 12 13 12 11 8 8 9 8 8 7 7 7 7 7 9 9 7 4 3 6 5 4 6 10 13 12 16 16 13 14 18 19 18 16 19 21 19 18 15 18 21 22
11 12 11 11 8 7 7 9 9 7 7 8 7 7 7 7 4 3 1 4 5 6 3 3 7 14 13 15 12 16 17 19 18 16 14 27 21 20 16 15 20 22 23
11 10 10 8 6 6 8 8 7 7 8 8 6 6 7 5 2 2 1 3 4 7 1 2 5 14 12 12 17 19 20 23 19 21 24 18 19 16 15 20 22 18 16
10 10 9 6 7 7 7 8 7 7 8 9 7 6 5 3 2 3 4 2 4 8 9 4 3 13 13 14 18 20 20 15 18 20 23 18 15 15 18 20 22 27 32
10 9 7 7 7 6 6 7 6 8 9 9 7 7 5 4 3 3 1 2 4 4 6 4 5 14 14 17 18 20 20 19 16 14 14 17 19 14 13 18 24 17 22
9 8 8 8 5 3 6 6 6 7 10 9 6 7 6 4 3 2 1 1 2 3 0 1 5 9 12 11 20 21 20 20 19 17 17 14 18 16 15 15 24 24 26
9 9 10 7 3 3 5 5 5 7 9 8 7 6 5 4 3 2 0 2 3 3 3 4 2 6 9 9 18 19 24 22 22 21 18 15 19 10 16 25 27 26 29
8 13 11 7 6 4 4 5 6 7 8 9 8 6 5 4 3 2 0 3 2 3 2 1 3 10 12 11 12 22 28 28 26 18 20 18 17 17 24 27 18 23 29
12 14 12 9 8 7 6 5 5 7 8 9 9 8 7 5 4 4 4 3 1 2 3 4 9 5 9 12 16 20 20 27 24 21 22 25 20 30 28 24 30 26 18
14 15 12 11 8 6 5 5 4 2 8 11 10 9 8 5 4 3 2 0 1 1 4 6 7 6 11 13 17 21 25 30 32 32 29 28 31 31 23 35 32 28 26
13 14 12 12 9 5 3 2 2 1 4 12 14 9 9 7 5 2 1 1 1 3 7 8 6 13 12 16 16 21 21 27 33 33 34 28 28 30 37 32 30 28 25
13 13 13 11 7 4 3 1 2 2 4 10 15 11 9 8 6 3 1 1 2 7 12 11 13 16 16 16 21 25 24 25 27 32 28 32 26 33 30 27 25 21 18
14 13 12 10 7 5 3 1 1 2 6 10 14 15 12 10 8 5 1 4 7 11 12 13 15 15 15 19 22 23 28 24 26 28 31 25 26 31 26 24 22 18 15
15 13 11 8 6 4 3 3 3 4 6 9 11 11 11 10 6 3 4 5 8 12 14 12 16 15 15 22 23 25 26 31 29 25 26 27 28 25 23 21 19 17 15
14 13 11 9 6 5 4 4 6 5 5 7 8 11 11 10 7 8 9 8 9 13 18 16 14 16 15 20 23 21 22 26 26 27 28 26 24 23 22 19 18 16 14
15 14 12 10 7 6 5 6 7 7 7 9 9 9 11 11 11 13 13 12 14 17 18 16 17 15 14 17 23 21 21 24 25 26 26 25 23 22 20 19 16 15 16
15 15 15 14 11 8 5 5 6 7 6 8 13 11 12 12 12 14 13 12 13 14 15 16 17 17 17 18 20 21 19 22 22 22 23 22 21 19 19 18 18 19 21
15 14 12 11 12 10 8 6 5 5 6 5 8 12 13 12 10 10 10 10 10 12 13 14 14 16 18 18 19 20 20 21 21 21 21 21 22 22 23 22 22 22 23
17 15 13 11 10 9 9 7 7 7 6 6 6 8 10 11 12 11 10 8 7 8 10 12 14 15 16 18 19 20 20 21 21 21 22 22 23 24 23 24 25 26 26
17 16 14 12 10 8 7 7 6 6 7 8 9 9 9 9 9 9 9 10 10 10 10 10 11 13 15 17 18 18 19 20 21 22 23 24 25 26 26 27 29 29 30
20 19 16 16 13 11 8 7 6 5 4 6 9 11 11 11 11 10 10 10 10 10 10 11 12 13 13 14 15 17 18 19 19 21 23 25 26 28 29 30 31 32 33
19 20 21 19 17 16 14 11 9 7 5 3 3 5 8 9 11 12 14 15 15 15 15 15 15 15 15 16 17 18 18 19 21 23 25 27 28 29 31 32 33 33 34
18 23 20 22 24 22 19 17 15 13 11 9 8 6 6 6 6 8 10 12 14 17 18 19 19 19 19 19 20 20 20 21 22 23 25 28 29 30 32 33 33 35 36
13 17 18 20 23 25 26 25 24 23 22 20 20 19 19 17 15 13 13 14 14 13 13 14 15 16 17 19 19 20 21 22 23 24 27 30 32 32 33 34 35 36 37

GFSGL_700_spd_045.txt.gz
Wind_Speed
15 16 16 13 13 13 13 13 13 12 10 8 7 7 8 7 6 6 7 7 8 9 7 11 11 14 14 14 13 12 11 10 16 21 15 14 14 15 15 16 19 21 22
16 15 12 11 12 12 12 12 11 9 7 6 6 8 7 6 5 6 8 7 8 11 10 14 15 14 14 12 12 13 13 13 16 18 17 14 15 15 15 16 19 20 21
14 12 11 11 11 11 10 10 8 6 6 6 7 7 5 5 6 7 7 6 10 7 8 9 13 14 14 17 15 12 13 16 18 19 16 15 15 15 17 18 18 19 21
12 11 11 10 10 8 9 7 5 6 7 8 7 5 5 4 5 5 6 6 3 6 6 7 8 16 16 22 20 15 15 16 17 17 18 17 16 19 18 17 19 22 18
11 10 9 8 7 7 7 5 6 7 8 8 6 5 4 4 5 5 5 3 3 4 4 7 11 17 17 13 15 17 18 18 17 16 18 18 20 19 18 18 21 17 18
9 8 7 6 6 6 5 5 7 9 9 8 7 5 3 4 4 5 4 2 2 4 5 6 9 16 17 15 20 18 16 13 15 13 16 18 18 16 17 16 17 19 24
7 6 5 7 7 5 4 7 8 9 9 10 8 4 4 5 3 4 4 2 3 2 7 7 7 18 16 14 18 19 19 20 17 12 16 16 12 14 18 18 20 20 18
7 7 7 7 5 4 6 8 7 10 11 10 7 5 5 5 4 2 1 1 1 1 3 7 11 19 20 16 17 21 23 22 21 19 20 13 16 14 17 15 23 20 20
9 10 9 6 4 6 8 8 7 8 11 9 7 6 5 5 3 2 1 0 2 3 4 3 4 13 11 22 19 21 22 23 24 24 23 18 16 13 18 18 23 23 28
12 12 10 6 6 7 8 8 8 8 9 9 7 6 6 5 3 2 1 2 1 2 3 4 9 10 14 14 22 23 22 22 23 24 29 23 20 15 20 25 19 29 25
14 14 11 9 7 7 8 7 7 7 7 8 8 8 8 6 3 2 3 3 1 2 4 6 8 11 11 16 23 24 24 24 23 24 21 26 19 21 29 28 25 28 27
16 14 13 11 9 8 8 7 5 6 8 9 9 10 9 6 4 2 0 1 1 1 5 9 6 9 12 13 18 25 28 29 24 18 22 23 20 33 30 31 29 34 27
16 15 14 12 9 7 6 5 4 5 7 12 12 11 10 7 4 2 1 1 1 2 7 7 6 9 14 19 21 22 25 30 26 21 25 22 31 33 29 24 32 31 28
14 13 14 12 9 6 4 3 4 4 7 13 16 11 10 8 5 4 2 2 4 7 10 7 11 14 15 19 21 20 21 27 24 25 28 27 31 26 30 32 31 27 25
14 13 13 12 9 6 4 1 2 2 4 10 17 15 12 10 7 3 0 3 8 10 10 11 13 13 14 21 24 24 27 27 26 28 26 30 27 26 30 29 25 22 18
14 12 12 11 8 6 6 5 5 5 7 8 13 12 9 6 4 2 5 7 13 12 12 12 13 14 16 20 22 26 29 31 33 28 27 24 24 29 27 25 22 20 18
14 14 14 13 10 8 8 7 6 7 6 8 9 9 9 6 4 4 5 6 12 16 13 15 12 14 16 17 17 21 29 31 26 27 26 21 29 26 25 23 21 20 17
16 16 15 13 12 10 8 8 7 7 8 9 10 10 10 8 9 10 9 10 13 20 16 14 15 14 16 19 18 20 24 23 23 25 26 29 28 26 24 22 20 18 19
18 17 17 15 13 11 10 9 9 9 11 9 11 14 14 13 13 12 12 15 16 16 15 15 17 16 18 20 18 17 20 21 22 26 27 26 25 24 23 23 22 22 21
18 16 15 15 14 12 11 10 10 10 10 11 11 14 16 15 13 10 10 12 13 13 14 14 14 15 17 22 20 17 21 23 23 23 23 23 23 23 23 22 22 22 22
20 18 16 14 13 13 12 10 10 10 10 10 10 11 12 13 12 11 11 10 10 10 10 11 13 15 15 16 18 19 20 22 22 21 22 22 22 22 22 23 23 23 25
23 20 18 16 14 12 13 12 10 10 9 9 9 9 9 9 10 10 9 9 9 9 9 10 10 11 13 15 16 18 19 20 21 21 22 23 24 24 24 26 27 28 29
24 23 21 18 16 15 13 12 12 11 10 10 10 9 9 8 8 8 8 8 8 9 10 11 11 12 12 13 14 15 17 17 18 20 21 23 25 26 27 28 29 31 33
27 25 24 22 20 18 17 16 14 13 12 11 10 9 9 10 10 10 9 9 9 10 10 10 10 11 12 13 14 16 17 18 20 22 23 25 26 28 29 31 32 33 34
23 24 25 25 25 24 22 21 21 20 19 18 16 15 15 15 15 16 16 16 16 16 16 16 15 15 16 16 16 16 16 17 19 20 23 25 27 28 30 32 33 33 35
24 22 18 17 23 24 24 22 21 20 20 19 19 19 19 19 19 20 20 21 21 21 21 22 22 22 23 24 24 25 25 25 26 26 27 30 31 32 34 35 35 36 37

GFSGL_700_spd_048.txt.gz
Wind_Speed
25 22 20 20 18 17 14 14 14 13 13 12 12 12 11 11 10 10 9 9 9 10 10 12 14 15 15 14 13 9 10 10 20 19 16 16 15 16 16 15 15 19 19
23 20 18 16 15 13 13 13 12 12 12 12 11 10 9 9 9 9 8 8 11 10 14 15 14 15 17 15 15 13 12 9 14 19 18 17 16 16 15 15 16 19 20
18 17 15 15 12 13 12 12 11 11 11 10 9 9 9 8 7 7 8 10 10 12 11 11 15 18 16 16 13 13 14 12 15 21 18 16 15 16 16 18 19 20 21
16 15 15 12 12 12 12 11 10 10 10 8 8 7 7 6 6 6 8 9 8 11 12 11 11 21 16 17 16 15 14 14 17 19 16 16 15 16 17 17 21 22 24
17 14 11 11 11 11 10 9 9 9 9 8 8 8 6 7 7 5 5 6 9 10 9 11 11 15 18 19 19 15 14 16 16 16 17 16 15 16 19 19 18 21 23
16 12 10 11 9 9 9 8 9 9 8 8 8 8 8 7 5 4 4 5 7 12 7 5 9 18 18 18 18 17 13 14 14 15 17 19 15 16 17 17 21 23 23
13 10 10 9 9 9 7 8 9 8 8 10 9 8 7 5 4 4 5 6 4 5 5 9 11 19 19 16 18 16 19 17 15 8 12 16 16 16 14 17 19 14 19
10 10 10 10 9 7 7 8 9 10 11 11 11 9 7 6 4 3 3 4 4 5 5 1 13 19 18 16 18 20 19 19 18 23 18 15 16 16 15 18 17 22 19
11 11 11 10 8 7 7 9 9 9 11 12 11 8 8 7 5 4 2 2 2 2 4 6 9 18 18 17 18 20 23 23 23 25 22 19 14 14 21 23 21 13 21
13 13 11 9 7 7 7 9 10 10 12 12 11 9 7 6 5 4 1 2 1 2 3 4 6 15 21 20 19 19 20 21 24 28 26 25 21 22 22 25 23 21 20
15 13 13 10 8 8 9 9 9 11 12 12 10 9 8 7 4 3 3 2 1 1 2 6 8 14 22 23 23 22 21 21 24 30 27 25 22 23 23 25 27 24 25
16 16 13 9 11 9 10 10 9 10 11 11 11 10 9 8 4 3 2 1 2 0 5 9 10 12 18 21 27 24 22 22 21 25 22 22 21 23 30 30 30 30 30
18 18 14 13 10 8 7 7 8 9 12 12 11 11 10 7 5 3 1 2 2 2 7 7 7 12 21 22 30 26 24 23 22 21 25 19 22 29 33 33 30 33 28
18 18 15 12 9 7 5 5 7 8 9 12 13 11 10 8 6 3 2 2 4 7 7 5 10 14 16 22 25 31 29 27 21 22 21 23 23 30 28 28 31 31 27
18 18 16 13 8 5 5 4 6 8 9 11 15 13 9 8 5 3 3 2 9 9 5 10 10 13 20 22 25 27 28 30 24 19 21 20 24 27 26 23 29 29 25
18 16 14 12 10 7 6 6 5 8 8 11 16 13 8 6 4 2 3 6 10 12 8 12 11 11 17 22 23 25 25 29 25 20 23 22 23 21 23 26 27 25 22
18 16 13 12 10 9 9 8 7 7 9 10 12 10 8 7 4 3 5 8 11 13 13 14 13 14 15 18 20 24 24 25 21 21 21 23 22 21 25 27 24 22 21
18 15 13 11 10 9 10 9 7 9 8 10 11 9 9 7 6 5 6 11 15 15 14 14 14 16 15 14 19 22 24 24 23 23 21 22 26 28 26 25 22 20 19
20 18 14 12 10 10 10 11 6 10 9 7 11 12 11 11 10 9 10 14 18 13 12 14 15 16 16 16 17 19 20 23 23 23 21 24 28 26 25 23 22 23 22
20 18 16 13 12 12 12 12 12 10 10 10 12 12 14 14 13 12 13 15 15 13 13 13 14 18 20 18 18 20 20 21 22 23 23 25 26 26 25 24 23 21 21
19 20 18 14 12 11 12 13 12 12 11 12 14 13 12 12 12 12 12 13 13 12 12 11 11 12 16 16 16 16 18 19 20 23 24 25 23 22 22 22 22 23 24
19 21 19 14 13 13 11 11 13 13 12 13 13 12 11 9 9 9 9 9 10 10 10 10 10 10 11 12 14 14 15 17 18 18 19 19 20 20 21 22 24 25 26
23 23 21 16 14 15 14 11 10 12 13 12 13 13 13 12 11 8 7 7 7 8 8 9 9 9 9 9 9 10 12 14 15 17 19 20 22 23 24 26 27 29 30
26 25 23 21 18 17 14 13 12 13 11 12 14 15 14 14 14 14 13 12 11 11 11 10 10 11 11 13 14 15 17 18 20 21 22 24 25 26 27 28 29 31 32
30 30 29 27 24 22 21 17 15 13 14 12 14 16 16 17 17 17 16 15 14 14 13 13 14 15 16 17 18 19 21 22 24 26 27 28 29 30 32 33 33 34 35
32 28 27 26 26 26 25 25 24 23 21 19 18 19 19 21 21 19 18 17 17 17 17 18 19 22 23 25 23 22 23 24 26 27 29 30 31 32 32 34 34 35 36